Weather History for Crestview, FL

Change the Weather History Date:

Tuesday, June 17, 2014

  Actual Average Record
Temperature  
Mean Temperature 82 °F -  
Max Temperature 96 °F 91 °F 99 °F (1998)
Min Temperature 69 °F 68 °F 61 °F (1979)
Cooling Degree Days 17    
Growing Degree Days 32 (Base 50)    
Moisture  
Dew Point 70 °F    
Average Humidity 70    
Maximum Humidity 93    
Minimum Humidity 44    
Precipitation  
Precipitation 0.00 in - - ()
Sea Level Pressure  
Sea Level Pressure 30.12 in    
Wind  
Wind Speed 3 mph (NW)    
Max Wind Speed 13 mph    
Max Gust Speed -    
Visibility 10 miles    
Events Rain , Thunderstorm    
Averages and records for this station are not official NWS values.
T = Trace of Precipitation, MM = Missing Value Source: NWS Daily Summary

Daily Weather History Graph

Daily Weather History Graph

Search for Another Location

Airport:

Trip Planner

Search our weather history database for the weather conditions in past years. The results will help you decide how hot, cold, wet, or windy it might be!

Date:

Astronomy

Jun. 17, 2014 Rise Set
Actual Time 5:42 AM CDT 7:51 PM CDT
Civil Twilight 5:15 AM CDT 8:18 PM CDT
Nautical Twilight 4:41 AM CDT 8:52 PM CDT
Astronomical Twilight 4:05 AM CDT 9:29 PM CDT
Moon 11:40 PM CDT (6/17) 10:38 AM CDT (6/17)
Length of Visible Light 15h 03m
Length of Day
14h 08m
Waning Gibbous, 73% of the Moon is Illuminated
Jun 17
Waning Gibbous
Jun 19
Last Quarter
Jun 27
New
Jul 5
First Quarter
Jul 12
Full

Hourly Weather History & Observations

Time (CDT) Temp. Heat Index Dew Point Humidity Pressure Visibility Wind Dir Wind Speed Gust Speed Precip Events Conditions
12:53 AM 73.9 °F - 71.1 °F 91% 30.12 in 9.0 mi Calm Calm - N/A   Clear
1:53 AM 72.0 °F - 70.0 °F 93% 30.12 in 8.0 mi Calm Calm - N/A   Clear
2:53 AM 72.0 °F - 70.0 °F 93% 30.11 in 8.0 mi Calm Calm - N/A   Clear
3:53 AM 71.1 °F - 69.1 °F 93% 30.11 in 8.0 mi Calm Calm - N/A   Clear
4:53 AM 70.0 °F - 68.0 °F 93% 30.12 in 9.0 mi Calm Calm - N/A   Clear
5:53 AM 69.1 °F - 66.9 °F 93% 30.14 in 7.0 mi Calm Calm - N/A   Clear
6:53 AM 73.0 °F - 70.0 °F 90% 30.16 in 8.0 mi Calm Calm - N/A   Clear
7:53 AM 80.1 °F 84.2 °F 73.0 °F 79% 30.18 in 10.0 mi NNW 6.9 mph - N/A   Clear
8:53 AM 84.0 °F 90.2 °F 73.0 °F 69% 30.19 in 10.0 mi NNW 5.8 mph - N/A   Clear
9:53 AM 88.0 °F 94.7 °F 72.0 °F 59% 30.18 in 10.0 mi North 5.8 mph - N/A   Clear
10:53 AM 90.0 °F 96.9 °F 72.0 °F 55% 30.17 in 10.0 mi NNE 6.9 mph - N/A   Clear
11:53 AM 91.0 °F 97.6 °F 71.1 °F 52% 30.16 in 10.0 mi Calm Calm - N/A   Clear
12:53 PM 91.0 °F 95.6 °F 69.1 °F 48% 30.14 in 10.0 mi NNW 4.6 mph - N/A   Scattered Clouds
1:53 PM 93.9 °F 99.1 °F 69.1 °F 44% 30.12 in 10.0 mi North 6.9 mph - N/A   Mostly Cloudy
2:53 PM 95.0 °F 101.3 °F 70.0 °F 44% 30.08 in 10.0 mi Variable 6.9 mph - N/A Thunderstorm Clear
3:51 PM 87.8 °F 92.6 °F 69.8 °F 55% 30.09 in 10.0 mi SSW 11.5 mph - N/A   Mostly Cloudy
3:53 PM 87.1 °F 91.3 °F 69.1 °F 55% 30.08 in 10.0 mi SSW 11.5 mph - N/A   Mostly Cloudy
4:01 PM 86.0 °F 89.4 °F 68.0 °F 55% 30.09 in 10.0 mi SSW 12.7 mph - N/A Thunderstorm Scattered Clouds
4:18 PM 87.1 °F 91.3 °F 69.1 °F 55% 30.09 in 10.0 mi SW 10.4 mph - N/A   Mostly Cloudy
4:53 PM 87.1 °F 90.6 °F 68.0 °F 53% 30.08 in 10.0 mi WSW 10.4 mph - N/A   Clear
5:53 PM 84.9 °F 88.8 °F 69.1 °F 59% 30.08 in 10.0 mi WNW 4.6 mph - N/A   Scattered Clouds
6:53 PM 84.0 °F 89.0 °F 71.1 °F 65% 30.06 in 10.0 mi NNW 4.6 mph - N/A   Clear
7:53 PM 81.0 °F 85.8 °F 73.0 °F 77% 30.09 in 10.0 mi Calm Calm - N/A   Clear
8:53 PM 79.0 °F - 73.0 °F 82% 30.10 in 10.0 mi SE 5.8 mph - N/A   Partly Cloudy
9:53 PM 79.0 °F - 69.1 °F 72% 30.13 in 10.0 mi South 8.1 mph - N/A   Mostly Cloudy
10:26 PM 79.0 °F - 66.0 °F 64% 30.13 in 10.0 mi Calm Calm - N/A Thunderstorm Mostly Cloudy
10:41 PM 77.0 °F - 69.1 °F 76% 30.13 in 10.0 mi SE 3.5 mph - 0.00 in Rain Light Rain
10:53 PM 75.9 °F - 68.0 °F 76% 30.13 in 10.0 mi East 5.8 mph - 0.00 in   Scattered Clouds
11:53 PM 75.0 °F - 69.1 °F 82% 30.12 in 10.0 mi East 3.5 mph - 0.00 in   Partly Cloudy